SCP
1 1 1 1 1 1 1 1 1 1 1 1 0 0 0 0 0 0 0 0 0 0 0 0 0 0 0 0 0 0 0 0 0 0 0 0 0 0 0 0 0 0 0
1 1 1 1 1 1 1 1 1 1 1 0 0 0 0 0 0 0 0 0 0 0 0 0 0 0 0 0 0 0 0 0 0 0 0 0 0 0 0 0 0 0 0
1 1 1 1 1 1 1 1 1 1 1 0 0 0 0 0 0 0 0 0 0 0 0 0 0 0 0 0 0 0 0 0 0 0 0 0 0 0 0 0 0 0 0
1 1 1 1 1 1 1 1 1 1 1 0 0 0 0 0 0 0 0 0 0 0 0 0 0 0 0 0 0 0 0 0 0 0 0 0 0 0 0 0 0 0 0
2 1 1 1 1 1 1 1 1 1 1 1 0 0 0 0 0 0 0 0 0 0 0 0 0 0 0 0 0 0 0 0 0 0 0 0 0 0 0 0 0 0 0
2 2 2 2 1 1 1 1 1 1 1 1 1 0 0 0 0 0 0 0 0 0 0 0 0 0 0 0 0 0 0 0 0 0 0 0 0 0 0 0 0 0 0
2 2 2 2 2 1 1 1 1 1 1 1 1 1 0 0 0 0 0 0 0 0 0 0 0 0 0 0 0 0 0 0 0 0 0 0 0 0 0 0 0 0 0
2 2 2 2 2 2 2 2 2 1 1 1 1 1 1 0 0 0 0 0 0 0 0 0 0 0 0 0 0 0 0 0 0 0 0 0 0 0 0 0 0 0 0
3 3 3 3 2 2 2 2 2 2 2 1 1 1 1 0 0 0 0 0 0 0 0 0 0 0 0 0 0 0 0 0 0 0 0 0 0 0 0 0 0 0 0
3 3 3 3 3 3 2 2 2 2 2 1 1 1 1 1 0 0 0 0 0 1 1 0 0 0 0 0 0 0 1 0 0 0 0 0 0 0 0 0 0 0 0
3 3 3 3 3 3 3 3 2 2 2 2 1 1 1 1 1 0 0 0 1 1 1 1 0 0 0 0 0 0 0 0 0 0 0 0 0 0 0 0 0 0 0
3 3 3 3 3 2 3 3 2 2 2 2 1 1 1 1 1 0 0 0 0 1 1 1 0 0 0 0 0 0 0 0 0 1 0 0 0 0 0 0 0 0 0
4 4 3 3 3 2 2 2 2 2 2 2 2 1 1 1 1 1 0 0 0 0 0 0 0 0 0 0 0 0 0 0 1 1 1 0 0 0 0 0 0 0 0
4 3 3 3 3 3 2 2 2 2 2 2 1 1 1 1 1 1 0 0 0 0 0 0 0 0 0 0 0 0 0 0 1 1 1 1 0 0 0 0 0 0 0
3 3 3 2 2 2 2 2 1 1 1 1 1 1 1 1 1 0 0 0 0 0 0 0 0 0 0 0 0 0 1 1 1 1 1 1 0 0 0 0 0 0 0
3 3 2 2 2 2 2 1 1 1 0 0 0 0 0 0 0 0 0 0 0 0 0 0 0 1 1 1 1 1 1 1 1 1 1 1 0 0 0 0 0 0 0
2 2 2 2 2 1 1 1 1 0 0 0 0 0 0 0 0 0 0 0 0 0 0 0 1 1 1 1 1 1 1 1 1 1 1 1 1 0 0 0 0 0 0
2 2 1 1 1 1 1 1 1 0 0 0 0 0 0 0 0 0 0 0 0 0 0 0 1 1 1 1 1 1 1 0 0 0 1 1 1 0 0 0 0 0 0
1 1 1 1 1 1 1 1 1 1 0 0 0 0 0 0 0 0 0 0 0 0 0 1 1 1 1 1 1 1 0 0 0 0 0 0 0 0 0 0 0 0 0
1 1 1 1 1 1 1 1 1 1 0 0 0 0 0 0 0 0 0 0 1 1 1 1 1 1 1 1 0 0 0 0 0 0 0 0 0 0 0 0 0 0 0
1 1 1 1 1 1 1 1 0 0 0 0 0 0 0 0 0 0 0 0 1 1 1 1 1 1 0 0 0 0 0 0 0 0 0 0 0 0 0 0 0 0 0
1 1 1 1 1 0 0 0 0 0 0 0 0 0 0 0 0 0 0 0 0 0 1 1 1 0 0 0 0 0 0 0 0 0 0 0 0 0 0 0 0 0 0
1 1 1 1 1 0 0 0 0 0 0 0 0 0 0 0 0 0 0 0 0 0 0 0 0 0 0 0 0 0 0 0 0 0 0 0 0 0 0 0 0 0 0
0 0 0 0 0 0 0 0 0 0 0 0 0 0 0 0 0 0 0 0 0 0 0 0 0 0 0 0 0 0 0 0 0 0 0 0 0 0 0 0 0 0 0
0 0 0 0 0 0 0 0 0 0 0 0 0 0 0 0 0 0 0 0 0 0 0 0 0 0 0 0 0 0 0 0 0 0 0 0 0 0 0 0 0 0 0
0 0 0 0 0 0 0 0 0 0 0 0 0 0 0 0 0 0 0 0 0 0 0 0 0 0 0 0 0 0 0 0 0 0 0 0 0 0 0 0 0 0 0
Wind_Speed
7 5 5 5 4 4 3 3 3 3 3 3 3 3 2 2 2 2 1 1 1 1 1 2 2 2 2 2 1 1 1 2 2 1 1 2 2 2 3 3 4 4 4
7 6 5 5 5 5 4 4 3 3 3 3 3 3 3 3 2 2 2 2 2 2 2 2 2 2 2 2 1 1 1 1 3 3 2 2 2 2 3 3 4 3 4
8 8 6 6 5 5 5 4 4 4 3 3 3 3 3 3 2 2 2 2 2 2 2 2 2 2 2 1 2 2 2 1 2 3 3 2 1 1 2 2 2 2 3
8 8 7 6 5 5 5 5 4 4 4 3 3 3 3 3 2 2 2 2 2 2 2 3 3 2 2 1 1 1 1 1 2 2 2 2 1 1 2 1 1 1 1
8 7 7 7 6 5 5 5 5 5 5 3 3 3 2 2 1 1 1 2 2 2 2 3 3 4 5 4 2 2 2 2 1 1 2 2 1 1 1 1 1 1 0
8 7 7 7 7 6 5 5 5 5 4 4 3 3 3 2 3 4 2 2 1 1 1 2 2 3 5 6 6 5 4 2 1 1 1 1 1 1 0 1 1 1 1
7 7 7 7 7 7 7 6 6 5 5 4 4 4 4 3 4 4 3 1 2 2 2 2 1 3 3 3 4 4 4 4 3 2 1 1 1 0 1 1 0 1 1
7 7 7 7 7 7 6 6 5 5 4 4 4 4 4 3 3 3 2 1 2 2 2 2 2 3 4 3 2 3 3 3 1 1 1 1 0 0 0 1 2 1 1
7 7 7 7 7 6 6 6 5 5 4 4 4 3 4 2 2 2 1 1 2 2 2 3 2 2 4 3 2 2 2 2 3 4 3 2 2 2 1 0 1 1 1
7 7 7 7 7 7 6 6 5 5 4 4 4 4 4 3 2 2 0 1 2 2 2 2 3 3 3 3 1 1 1 1 1 2 1 1 2 2 2 1 1 1 0
6 7 7 6 6 6 6 5 5 5 4 4 4 4 3 3 3 3 2 1 1 1 2 1 2 3 2 2 1 0 1 1 1 2 2 2 2 1 1 1 0 1 1
6 7 7 7 6 6 6 5 5 5 5 5 4 4 3 3 3 3 3 2 1 1 0 2 2 3 1 1 1 1 2 1 1 1 1 1 1 1 1 1 1 1 1
6 6 6 6 5 6 6 6 5 5 5 5 5 4 3 3 3 4 4 3 1 1 1 2 2 3 1 1 3 3 2 1 1 1 1 1 1 1 1 1 1 1 1
6 6 6 6 6 5 5 5 5 4 5 5 4 4 4 3 3 2 3 3 3 3 2 2 2 3 2 2 1 1 1 1 0 0 1 1 1 1 1 1 1 1 1
6 6 6 6 6 5 3 2 3 2 2 3 3 3 4 4 3 3 2 2 1 1 1 1 2 2 2 2 2 1 1 0 0 0 0 0 0 1 1 0 0 0 0
6 6 5 5 5 5 5 4 6 4 5 5 4 4 4 6 7 5 4 2 3 3 2 2 2 2 2 2 2 2 1 1 0 0 0 0 0 0 0 0 0 1 0
5 5 4 4 5 5 5 5 4 4 6 6 5 6 7 8 7 5 4 3 3 3 2 2 2 2 1 1 1 1 1 1 0 0 0 1 1 1 1 1 1 1 1
5 5 5 4 5 5 5 5 5 5 5 3 3 5 8 7 7 6 5 4 2 3 4 3 2 1 1 1 1 1 1 1 1 1 1 1 1 1 1 1 1 0 1
5 5 4 4 4 4 4 4 4 5 5 5 4 3 5 6 5 5 5 3 4 4 3 2 1 1 1 1 1 1 1 1 1 1 1 1 1 1 1 1 1 1 1
4 5 5 4 4 4 4 5 5 5 5 5 6 5 5 6 5 5 5 4 4 3 3 2 2 1 1 1 1 1 1 1 1 1 1 1 1 1 1 2 2 1 1
4 5 6 5 5 5 5 4 4 4 4 5 5 6 8 6 6 6 5 5 4 3 3 3 2 2 2 2 1 2 2 2 1 1 1 1 1 1 2 2 2 2 2
4 4 4 4 4 4 4 4 4 4 4 5 4 6 9 6 5 5 5 5 4 3 3 3 3 3 2 2 2 2 2 2 1 1 1 1 2 2 2 2 2 2 2
3 4 4 3 3 4 4 4 4 4 5 5 5 6 7 6 5 4 4 4 3 3 3 3 3 2 2 2 2 2 2 2 1 1 1 2 2 2 2 2 2 2 2
4 4 4 4 4 4 5 4 4 4 5 5 5 6 6 5 4 4 4 4 3 3 3 2 2 3 3 2 1 1 1 1 0 1 1 2 3 2 2 2 2 2 2
3 4 4 4 4 5 5 5 5 4 4 4 4 5 5 5 5 4 3 3 3 3 4 3 3 3 4 3 2 2 2 3 2 1 1 2 3 2 2 3 2 2 2
3 4 3 3 4 4 5 5 5 4 4 4 4 4 4 4 4 4 4 3 3 3 4 3 4 5 4 3 4 4 4 3 2 0 2 2 2 2 2 2 3 3 3
Wind_Direction
166 165 154 154 151 147 138 126 121 114 109 109 108 103 101 96 93 91 86 70 73 50 32 53 45 30 17 14 24 41 79 112 130 112 103 112 113 121 131 139 132 135 138
161 157 158 151 155 157 143 131 128 120 116 112 111 106 104 98 93 90 82 66 67 62 50 51 39 34 39 30 21 19 56 116 141 143 139 136 137 150 149 158 151 154 140
163 164 161 157 159 155 143 136 135 131 125 117 109 103 95 91 88 85 80 69 67 65 59 58 47 41 30 35 50 37 46 79 122 133 139 127 134 161 142 144 148 153 157
161 166 164 164 161 156 147 145 145 137 131 123 117 111 107 96 79 87 103 94 81 70 57 57 50 51 34 23 58 54 71 81 106 120 130 140 144 162 139 154 151 161 181
159 164 164 162 156 154 151 150 147 146 144 131 125 119 113 101 57 42 108 115 102 97 90 89 78 74 66 58 49 49 63 81 106 115 132 123 118 134 168 184 147 137 165
159 163 159 158 156 157 154 152 146 142 137 134 129 123 113 89 52 45 38 88 90 88 82 99 114 98 94 88 77 67 66 84 80 88 94 119 122 135 116 139 140 153 194
160 160 159 159 160 162 162 156 152 151 149 143 138 133 114 68 44 43 35 63 69 55 46 37 55 70 84 99 105 92 68 59 78 92 84 81 83 100 162 204 164 157 210
163 164 161 163 166 161 157 158 154 153 154 150 144 143 126 92 55 40 25 98 78 66 55 49 60 49 37 31 79 84 73 51 68 111 103 116 94 99 185 207 202 183 196
167 166 162 162 163 160 162 161 157 154 153 153 150 145 128 105 77 81 24 152 115 96 77 58 59 64 28 36 88 99 93 90 80 90 102 135 137 123 105 45 247 194 213
170 163 157 158 164 165 163 156 152 151 154 151 147 143 138 135 112 115 151 197 155 142 119 99 71 55 35 30 91 111 100 71 96 96 104 157 168 155 145 107 349 319 237
159 154 154 153 158 158 152 151 150 149 148 151 148 147 146 145 134 123 122 258 231 172 157 133 98 83 58 5 351 90 231 264 223 183 160 155 150 134 139 125 42 6 1
151 154 153 155 166 162 153 155 158 159 159 164 163 163 156 146 139 137 133 142 319 327 129 119 125 125 102 324 296 282 287 272 235 181 138 133 124 109 119 142 162 134 130
148 154 154 155 155 157 160 164 169 173 178 177 174 171 166 150 133 132 138 135 120 123 82 99 155 173 180 229 217 238 257 226 209 151 137 135 136 157 156 172 163 158 188
155 155 157 159 166 165 166 173 179 184 186 180 179 173 166 159 156 157 157 148 146 155 167 169 184 208 241 263 240 228 211 207 222 173 156 151 166 159 155 173 179 182 194
159 161 168 170 164 158 148 142 171 148 175 177 179 172 170 165 160 151 154 165 178 139 155 198 190 182 195 196 173 165 169 182 238 196 155 131 225 168 162 192 130 298 149
167 171 174 170 162 162 150 117 53 80 97 109 120 134 132 144 149 142 140 142 148 148 173 209 198 195 195 186 172 167 160 161 264 276 11 338 290 258 190 170 215 231 222
175 173 176 170 168 171 166 160 140 89 77 87 104 123 135 145 145 146 151 152 163 159 214 225 201 205 206 194 176 162 153 155 222 247 252 268 275 270 266 249 248 248 229
180 179 181 173 177 182 179 177 169 167 159 132 108 130 144 153 154 155 152 143 176 196 222 220 198 186 180 172 138 123 136 165 197 233 243 274 274 264 268 259 244 291 298
185 185 182 176 184 186 181 185 183 174 166 155 144 140 155 159 164 172 168 194 209 210 206 205 198 177 169 157 147 154 172 182 199 250 250 281 295 288 282 300 305 275 267
182 185 189 190 192 186 187 191 186 178 172 169 171 166 165 173 180 185 199 211 216 208 197 196 186 180 174 170 173 193 210 190 200 225 236 250 252 265 268 266 273 270 259
190 183 188 198 198 193 196 202 191 184 180 178 177 172 174 185 188 190 194 204 209 208 197 190 185 194 184 187 198 212 225 217 213 212 214 245 261 262 265 268 276 282 292
199 196 199 203 197 192 197 200 194 191 188 184 175 171 182 194 191 192 195 201 208 205 194 194 197 188 181 195 199 210 223 221 215 215 232 243 242 249 259 263 270 275 273
211 207 202 199 199 190 201 207 206 201 197 194 185 175 185 200 196 193 196 200 197 195 194 195 193 186 187 194 193 200 210 210 204 227 263 261 263 267 267 267 275 285 291
215 211 207 199 201 206 208 206 209 210 205 200 191 183 182 186 189 192 199 193 182 180 183 187 190 182 168 158 167 156 74 60 77 217 278 281 278 283 285 281 278 285 293
226 223 215 207 209 209 210 208 206 204 208 205 191 183 182 183 182 183 185 184 181 181 183 181 180 169 167 164 143 117 104 95 75 357 275 274 273 280 289 291 295 300 293
229 231 224 215 210 210 210 208 207 207 205 197 179 180 181 180 176 177 176 179 188 193 193 184 173 166 165 154 141 129 124 121 114 18 300 282 284 287 292 294 295 295 291